GHHIX TXKF-KPHL

Flight info

Callsign GHHIX
Flight time 1h 48m
Altitude 38000
Route DASER L459 DARUX DCT RESQU/N0461F380 DCT WEBBB B24 DASHA JIIMS4
Aircraft A346/H-SDE2E3FGHIJ3J4J5M1RWXY/LB1D1

Departure

Time 2026-05-05 19:51
Airport L.F. Wade International Airport (TXKF)

Arrival

Time 2026-05-05 21:40
Airport Philadelphia International Airport (KPHL)
Time Latitude Longitude Altitude Speed Heading
2026-05-05 19:23 32.36130 -64.70085 37 ft 0 kts 152°
2026-05-05 19:42 32.36136 -64.70088 37 ft 4 kts 140°
2026-05-05 19:43 32.36152 -64.70105 36 ft 4 kts 135°
2026-05-05 19:43 32.36163 -64.70127 32 ft 4 kts 75°
2026-05-05 19:43 32.36151 -64.70154 32 ft 3 kts 60°
2026-05-05 19:43 32.36149 -64.70158 33 ft 0 kts 62°
2026-05-05 19:47 32.36150 -64.70156 37 ft 1 kts 62°
2026-05-05 19:47 32.36158 -64.70138 37 ft 4 kts 62°
2026-05-05 19:47 32.36181 -64.70100 37 ft 7 kts 44°
2026-05-05 19:47 32.36234 -64.70060 37 ft 11 kts 30°
2026-05-05 19:48 32.36309 -64.70003 37 ft 14 kts 44°
2026-05-05 19:48 32.36364 -64.69888 37 ft 18 kts 66°
2026-05-05 19:48 32.36416 -64.69742 37 ft 21 kts 67°
2026-05-05 19:48 32.36474 -64.69577 34 ft 23 kts 67°
2026-05-05 19:49 32.36530 -64.69439 35 ft 15 kts 43°
2026-05-05 19:49 32.36631 -64.69393 29 ft 10 kts 26°
2026-05-05 19:49 32.36651 -64.69326 29 ft 4 kts 95°
2026-05-05 19:50 32.36651 -64.69324 29 ft 1 kts 96°
2026-05-05 19:50 32.36651 -64.69322 29 ft 0 kts 96°
2026-05-05 19:50 32.36631 -64.69179 29 ft 51 kts 101°
2026-05-05 19:50 32.36506 -64.68479 32 ft 119 kts 99°
2026-05-05 19:51 32.36302 -64.67290 39 ft 172 kts 101°
2026-05-05 19:51 32.36038 -64.65855 667 ft 176 kts 98°
2026-05-05 19:51 32.35803 -64.64480 1597 ft 166 kts 97°
2026-05-05 19:51 32.35819 -64.63131 2273 ft 170 kts 71°
2026-05-05 19:52 32.36471 -64.61901 2688 ft 187 kts 42°
2026-05-05 19:52 32.37677 -64.61158 3169 ft 208 kts 13°
2026-05-05 19:52 32.39185 -64.61331 3689 ft 234 kts 338°
2026-05-05 19:52 32.40444 -64.62675 4193 ft 262 kts 300°
2026-05-05 19:53 32.40999 -64.64809 4722 ft 279 kts 283°
2026-05-05 19:53 32.41715 -64.66950 5388 ft 279 kts 307°
2026-05-05 19:53 32.42959 -64.68661 6012 ft 280 kts 315°
2026-05-05 19:53 32.44331 -64.70345 6990 ft 279 kts 313°
2026-05-05 19:54 32.45627 -64.72054 7979 ft 279 kts 310°
2026-05-05 19:54 32.46858 -64.73805 8923 ft 282 kts 308°
2026-05-05 19:54 32.48087 -64.75646 9903 ft 286 kts 306°
2026-05-05 19:54 32.49302 -64.77540 10785 ft 293 kts 306°
2026-05-05 19:55 32.50551 -64.79533 11396 ft 310 kts 304°
2026-05-05 19:55 32.51863 -64.81655 11920 ft 328 kts 304°
2026-05-05 19:55 32.53244 -64.83911 12422 ft 347 kts 304°
2026-05-05 19:55 32.54698 -64.86292 12901 ft 366 kts 304°
2026-05-05 19:56 32.56219 -64.88786 13475 ft 378 kts 304°
2026-05-05 19:56 32.57764 -64.91327 14347 ft 381 kts 304°
2026-05-05 19:56 32.59329 -64.93900 15248 ft 384 kts 303°
2026-05-05 19:56 32.60902 -64.96492 16064 ft 389 kts 303°
2026-05-05 19:57 32.62493 -64.99122 16853 ft 395 kts 303°
2026-05-05 19:57 32.64108 -65.01788 17652 ft 400 kts 303°
2026-05-05 19:57 32.65743 -65.04492 18016 ft 404 kts 304°
2026-05-05 19:57 32.67387 -65.07211 18238 ft 406 kts 303°
2026-05-05 19:58 32.69037 -65.09938 18535 ft 408 kts 303°
2026-05-05 19:58 32.70691 -65.12675 19345 ft 408 kts 303°
2026-05-05 19:58 32.72354 -65.15428 20027 ft 413 kts 303°
2026-05-05 19:58 32.74040 -65.18220 20713 ft 418 kts 303°
2026-05-05 19:59 32.75739 -65.21039 21449 ft 421 kts 302°
2026-05-05 19:59 32.77453 -65.23883 22188 ft 424 kts 302°
2026-05-05 19:59 32.79178 -65.26750 22908 ft 428 kts 302°
2026-05-05 19:59 32.80918 -65.29645 23631 ft 432 kts 301°
2026-05-05 20:00 32.82670 -65.32564 24237 ft 435 kts 301°
2026-05-05 20:00 32.84435 -65.35507 24822 ft 439 kts 301°
2026-05-05 20:00 32.86217 -65.38479 25379 ft 443 kts 301°
2026-05-05 20:00 32.88015 -65.41482 25936 ft 447 kts 300°
2026-05-05 20:01 32.89815 -65.44489 26511 ft 450 kts 300°
2026-05-05 20:01 32.91643 -65.47548 27055 ft 454 kts 300°
2026-05-05 20:01 32.93480 -65.50622 27607 ft 457 kts 300°
2026-05-05 20:01 32.95332 -65.53723 28141 ft 461 kts 300°
2026-05-05 20:02 32.97198 -65.56850 28710 ft 464 kts 299°
2026-05-05 20:02 32.99066 -65.59982 29460 ft 462 kts 299°
2026-05-05 20:02 33.00922 -65.63092 30325 ft 459 kts 299°
2026-05-05 20:02 33.02763 -65.66181 31067 ft 456 kts 298°
2026-05-05 20:03 33.04596 -65.69258 31822 ft 451 kts 298°
2026-05-05 20:03 33.06407 -65.72298 32598 ft 447 kts 298°
2026-05-05 20:03 33.08196 -65.75306 33393 ft 442 kts 297°
2026-05-05 20:03 33.09944 -65.78248 34142 ft 438 kts 297°
2026-05-05 20:04 33.11723 -65.81250 34768 ft 435 kts 297°
2026-05-05 20:04 33.13436 -65.84150 35300 ft 433 kts 296°
2026-05-05 20:04 33.15176 -65.87099 35781 ft 433 kts 296°
2026-05-05 20:04 33.16911 -65.90041 36247 ft 433 kts 297°
2026-05-05 20:05 33.18645 -65.92982 36683 ft 433 kts 297°
2026-05-05 20:05 33.20382 -65.95927 37094 ft 434 kts 296°
2026-05-05 20:05 33.22122 -65.98879 37453 ft 435 kts 297°
2026-05-05 20:05 33.23865 -66.01840 37777 ft 436 kts 297°
2026-05-05 20:06 33.25611 -66.04808 38114 ft 438 kts 297°
2026-05-05 20:06 33.29131 -66.10793 38195 ft 440 kts 297°
2026-05-05 20:07 33.32652 -66.16784 38187 ft 440 kts 297°
2026-05-05 20:07 33.36167 -66.22777 38184 ft 440 kts 297°
2026-05-05 20:08 33.39677 -66.28770 38241 ft 439 kts 296°
2026-05-05 20:08 33.43180 -66.34757 38209 ft 438 kts 296°
2026-05-05 20:09 33.46675 -66.40749 38203 ft 438 kts 296°
2026-05-05 20:09 33.50171 -66.46749 38200 ft 438 kts 296°
2026-05-05 20:10 33.53658 -66.52745 38200 ft 438 kts 296°
2026-05-05 20:10 33.57139 -66.58740 38226 ft 438 kts 296°
2026-05-05 20:11 33.60611 -66.64729 38201 ft 438 kts 296°
2026-05-05 20:11 33.64105 -66.70765 38202 ft 438 kts 296°
2026-05-05 20:12 33.67582 -66.76781 38209 ft 438 kts 296°
2026-05-05 20:12 33.71058 -66.82806 38212 ft 438 kts 296°
2026-05-05 20:13 33.74530 -66.88835 38215 ft 438 kts 296°
2026-05-05 20:13 33.77995 -66.94864 38212 ft 438 kts 296°
2026-05-05 20:14 33.81464 -67.00903 38211 ft 438 kts 296°
2026-05-05 20:14 33.84923 -67.06938 38215 ft 438 kts 296°
2026-05-05 20:15 33.88382 -67.12982 38217 ft 438 kts 296°
2026-05-05 20:15 33.91839 -67.19032 38217 ft 438 kts 296°
2026-05-05 20:16 33.95294 -67.25097 38235 ft 439 kts 297°
2026-05-05 20:16 33.98760 -67.31182 38222 ft 440 kts 297°
2026-05-05 20:17 34.02217 -67.37258 38217 ft 440 kts 297°
2026-05-05 20:17 34.05653 -67.43309 38209 ft 440 kts 296°
2026-05-05 20:18 34.09127 -67.49397 38219 ft 441 kts 298°
2026-05-05 20:18 34.12992 -67.55218 38261 ft 448 kts 304°
2026-05-05 20:19 34.17396 -67.60604 38215 ft 446 kts 310°
2026-05-05 20:19 34.19718 -67.63013 38212 ft 435 kts 313°
2026-05-05 20:19 34.22074 -67.65226 38209 ft 423 kts 315°
2026-05-05 20:19 34.24396 -67.67320 38208 ft 409 kts 315°
2026-05-05 20:20 34.26636 -67.69329 38210 ft 394 kts 315°
2026-05-05 20:20 34.28802 -67.71274 38209 ft 380 kts 314°
2026-05-05 20:20 34.30881 -67.73145 38207 ft 365 kts 314°
2026-05-05 20:20 34.32873 -67.74939 38207 ft 349 kts 313°
2026-05-05 20:21 34.34772 -67.76652 38202 ft 333 kts 313°
2026-05-05 20:21 34.36590 -67.78293 38095 ft 320 kts 312°
2026-05-05 20:21 34.38384 -67.79940 37612 ft 334 kts 312°
2026-05-05 20:21 34.40273 -67.81702 37272 ft 353 kts 313°
2026-05-05 20:22 34.42291 -67.83584 36825 ft 376 kts 314°
2026-05-05 20:22 34.44410 -67.85518 36855 ft 387 kts 316°
2026-05-05 20:22 34.46597 -67.87496 36861 ft 398 kts 316°
2026-05-05 20:23 34.51130 -67.91590 37101 ft 413 kts 316°
2026-05-05 20:23 34.53453 -67.93694 37264 ft 419 kts 316°
2026-05-05 20:23 34.55805 -67.95830 37412 ft 425 kts 316°
2026-05-05 20:23 34.58191 -67.98001 37567 ft 431 kts 316°
2026-05-05 20:24 34.60606 -68.00202 37714 ft 437 kts 316°
2026-05-05 20:24 34.63049 -68.02430 37862 ft 443 kts 316°
2026-05-05 20:24 34.65530 -68.04696 38007 ft 449 kts 316°
2026-05-05 20:24 34.68040 -68.06991 38142 ft 454 kts 316°
2026-05-05 20:25 34.70574 -68.09309 38226 ft 458 kts 316°
2026-05-05 20:25 34.75684 -68.13990 38228 ft 460 kts 316°
2026-05-05 20:26 34.80794 -68.18674 38232 ft 460 kts 316°
2026-05-05 20:26 34.85871 -68.23342 38235 ft 460 kts 317°
2026-05-05 20:27 34.90155 -68.27281 38230 ft 460 kts 317°
2026-05-05 20:27 34.95263 -68.31986 38227 ft 460 kts 317°
2026-05-05 20:28 35.00367 -68.36696 38250 ft 460 kts 317°
2026-05-05 20:28 35.05464 -68.41414 38229 ft 460 kts 317°
2026-05-05 20:29 35.10559 -68.46130 38234 ft 460 kts 317°
2026-05-05 20:29 35.15657 -68.50858 38229 ft 460 kts 317°
2026-05-05 20:30 35.20748 -68.55594 38237 ft 459 kts 317°
2026-05-05 20:30 35.25821 -68.60314 38238 ft 459 kts 317°
2026-05-05 20:31 35.30900 -68.65050 38246 ft 458 kts 317°
2026-05-05 20:31 35.35964 -68.69780 38233 ft 458 kts 318°
2026-05-05 20:32 35.41044 -68.74527 38236 ft 458 kts 318°
2026-05-05 20:32 35.46107 -68.79268 38163 ft 456 kts 318°
2026-05-05 20:33 35.51078 -68.83927 38217 ft 449 kts 317°
2026-05-05 20:33 35.56018 -68.88575 38237 ft 445 kts 318°
2026-05-05 20:34 35.60962 -68.93237 38282 ft 452 kts 318°
2026-05-05 20:34 35.65989 -68.97975 38240 ft 456 kts 319°
2026-05-05 20:35 35.71026 -69.02727 38235 ft 456 kts 318°
2026-05-05 20:35 35.76067 -69.07492 38236 ft 457 kts 318°
2026-05-05 20:36 35.81104 -69.12263 38231 ft 456 kts 318°
2026-05-05 20:36 35.86136 -69.17038 38242 ft 456 kts 318°
2026-05-05 20:37 35.91155 -69.21814 38238 ft 455 kts 319°
2026-05-05 20:37 35.96155 -69.26571 38230 ft 454 kts 319°
2026-05-05 20:38 36.01153 -69.31333 38219 ft 454 kts 319°
2026-05-05 20:38 36.06158 -69.36112 38217 ft 454 kts 319°
2026-05-05 20:39 36.11153 -69.40891 38236 ft 454 kts 318°
2026-05-05 20:39 36.15910 -69.45999 38231 ft 451 kts 313°
2026-05-05 20:40 36.20175 -69.51674 38223 ft 448 kts 307°
2026-05-05 20:40 36.24196 -69.57579 38223 ft 448 kts 307°
2026-05-05 20:41 36.28213 -69.63506 38219 ft 448 kts 307°
2026-05-05 20:41 36.32225 -69.69428 38221 ft 448 kts 307°
2026-05-05 20:42 36.36234 -69.75353 38214 ft 448 kts 307°
2026-05-05 20:42 36.40241 -69.81283 38217 ft 448 kts 307°
2026-05-05 20:43 36.44241 -69.87214 38226 ft 448 kts 307°
2026-05-05 20:43 36.48242 -69.93162 38214 ft 448 kts 307°
2026-05-05 20:44 36.52239 -69.99106 38209 ft 448 kts 307°
2026-05-05 20:44 36.56225 -70.05044 38209 ft 448 kts 307°
2026-05-05 20:45 36.62208 -70.13979 38206 ft 448 kts 307°
2026-05-05 20:45 36.66187 -70.19936 38205 ft 447 kts 307°
2026-05-05 20:46 36.70139 -70.25864 38204 ft 447 kts 307°
2026-05-05 20:46 36.74110 -70.31830 38202 ft 447 kts 307°
2026-05-05 20:47 36.78104 -70.37841 38201 ft 446 kts 307°
2026-05-05 20:47 36.82031 -70.43758 38190 ft 434 kts 307°
2026-05-05 20:48 36.83927 -70.46617 38191 ft 423 kts 307°
2026-05-05 20:48 36.85824 -70.49485 38196 ft 432 kts 307°
2026-05-05 20:48 36.89712 -70.55376 38201 ft 444 kts 307°
2026-05-05 20:49 36.93642 -70.61332 38191 ft 444 kts 307°
2026-05-05 20:49 36.97550 -70.67265 38190 ft 444 kts 307°
2026-05-05 20:50 37.01469 -70.73225 38191 ft 444 kts 307°
2026-05-05 20:50 37.05395 -70.79206 38190 ft 444 kts 307°
2026-05-05 20:51 37.09314 -70.85188 38184 ft 444 kts 307°
2026-05-05 20:51 37.13221 -70.91166 38179 ft 442 kts 307°
2026-05-05 20:52 37.17103 -70.97113 38176 ft 441 kts 307°
2026-05-05 20:52 37.20981 -71.03063 38171 ft 441 kts 307°
2026-05-05 20:53 37.24863 -71.09030 38171 ft 441 kts 307°
2026-05-05 20:53 37.28726 -71.14979 38171 ft 441 kts 307°
2026-05-05 20:54 37.32613 -71.20976 38162 ft 440 kts 307°
2026-05-05 20:54 37.36479 -71.26951 38162 ft 440 kts 307°
2026-05-05 20:55 37.40343 -71.32933 38161 ft 440 kts 307°
2026-05-05 20:55 37.44185 -71.38938 38156 ft 440 kts 305°
2026-05-05 20:56 37.47643 -71.45279 38154 ft 438 kts 300°
2026-05-05 20:56 37.50548 -71.52025 38154 ft 437 kts 294°
2026-05-05 20:57 37.53082 -71.58984 38149 ft 437 kts 294°
2026-05-05 20:57 37.55593 -71.65957 38149 ft 436 kts 294°
2026-05-05 20:58 37.58100 -71.72925 38146 ft 436 kts 294°
2026-05-05 20:58 37.60606 -71.79901 38141 ft 436 kts 294°
2026-05-05 20:59 37.63106 -71.86881 38135 ft 436 kts 293°
2026-05-05 20:59 37.65602 -71.93858 38136 ft 436 kts 294°
2026-05-05 21:00 37.68439 -72.00633 38132 ft 437 kts 300°
2026-05-05 21:00 37.71703 -72.07112 38133 ft 437 kts 302°
2026-05-05 21:01 37.75016 -72.13555 38136 ft 437 kts 302°
2026-05-05 21:01 37.78319 -72.19996 38126 ft 436 kts 302°
2026-05-05 21:02 37.81617 -72.26446 38119 ft 436 kts 302°
2026-05-05 21:02 37.84909 -72.32903 38120 ft 436 kts 302°
2026-05-05 21:03 37.88199 -72.39360 38117 ft 436 kts 302°
2026-05-05 21:03 37.91499 -72.45824 38113 ft 436 kts 302°
2026-05-05 21:04 37.94792 -72.52282 38114 ft 436 kts 302°
2026-05-05 21:04 37.98079 -72.58739 38111 ft 436 kts 302°
2026-05-05 21:05 38.01334 -72.65154 38104 ft 435 kts 302°
2026-05-05 21:05 38.04656 -72.71572 38103 ft 435 kts 303°
2026-05-05 21:06 38.07993 -72.77978 38104 ft 434 kts 303°
2026-05-05 21:06 38.11318 -72.84394 38098 ft 435 kts 303°
2026-05-05 21:07 38.14642 -72.90811 38091 ft 434 kts 303°
2026-05-05 21:07 38.17959 -72.97228 38093 ft 433 kts 303°
2026-05-05 21:08 38.21221 -73.03617 38086 ft 430 kts 302°
2026-05-05 21:08 38.24470 -73.10022 38081 ft 430 kts 302°
2026-05-05 21:09 38.27703 -73.16400 38075 ft 430 kts 302°
2026-05-05 21:09 38.30950 -73.22813 38075 ft 430 kts 302°
2026-05-05 21:10 38.34187 -73.29220 38067 ft 430 kts 302°
2026-05-05 21:10 38.37408 -73.35605 38067 ft 425 kts 302°
2026-05-05 21:11 38.40604 -73.41953 38059 ft 425 kts 302°
2026-05-05 21:11 38.43253 -73.47227 38057 ft 424 kts 302°
2026-05-05 21:12 38.46509 -73.53521 38048 ft 424 kts 303°
2026-05-05 21:12 38.49807 -73.59776 38048 ft 424 kts 303°
2026-05-05 21:13 38.53062 -73.66068 38037 ft 424 kts 302°
2026-05-05 21:13 38.56218 -73.72352 38035 ft 418 kts 302°
2026-05-05 21:14 38.59363 -73.78614 38034 ft 418 kts 302°
2026-05-05 21:14 38.62493 -73.84845 37547 ft 414 kts 302°
2026-05-05 21:15 38.64064 -73.87981 36455 ft 424 kts 303°
2026-05-05 21:15 38.65674 -73.91203 35417 ft 433 kts 303°
2026-05-05 21:15 38.67307 -73.94467 34595 ft 437 kts 304°
2026-05-05 21:15 38.68953 -73.97754 33825 ft 439 kts 304°
2026-05-05 21:16 38.70580 -74.01002 32990 ft 441 kts 304°
2026-05-05 21:16 38.72266 -74.04366 32175 ft 442 kts 304°
2026-05-05 21:16 38.73930 -74.07701 31344 ft 444 kts 303°
2026-05-05 21:16 38.75600 -74.11056 30438 ft 448 kts 303°
2026-05-05 21:17 38.77283 -74.14442 29382 ft 453 kts 303°
2026-05-05 21:17 38.78982 -74.17868 28332 ft 456 kts 303°
2026-05-05 21:17 38.80659 -74.21251 27749 ft 451 kts 303°
2026-05-05 21:17 38.82330 -74.24624 27207 ft 444 kts 303°
2026-05-05 21:18 38.83980 -74.27957 26535 ft 441 kts 302°
2026-05-05 21:18 38.85623 -74.31279 25880 ft 439 kts 302°
2026-05-05 21:18 38.87252 -74.34575 25275 ft 435 kts 302°
2026-05-05 21:18 38.88871 -74.37848 24644 ft 432 kts 301°
2026-05-05 21:19 38.90476 -74.41091 24105 ft 428 kts 301°
2026-05-05 21:19 38.92056 -74.44296 23633 ft 422 kts 301°
2026-05-05 21:19 38.93616 -74.47475 23070 ft 418 kts 301°
2026-05-05 21:19 38.95155 -74.50606 22587 ft 411 kts 301°
2026-05-05 21:20 38.96678 -74.53713 22118 ft 406 kts 301°
2026-05-05 21:20 38.98173 -74.56763 21662 ft 401 kts 300°
2026-05-05 21:20 38.99656 -74.59779 21224 ft 396 kts 300°
2026-05-05 21:20 39.01110 -74.62750 20797 ft 391 kts 300°
2026-05-05 21:21 39.02555 -74.65697 20374 ft 387 kts 300°
2026-05-05 21:21 39.03979 -74.68615 19913 ft 383 kts 300°
2026-05-05 21:21 39.05392 -74.71509 19494 ft 380 kts 300°
2026-05-05 21:21 39.06796 -74.74390 19069 ft 377 kts 299°
2026-05-05 21:22 39.08250 -74.77192 18614 ft 377 kts 306°
2026-05-05 21:22 39.10161 -74.79525 18159 ft 381 kts 320°
2026-05-05 21:22 39.12496 -74.81159 17684 ft 385 kts 334°
2026-05-05 21:22 39.15051 -74.82204 17262 ft 385 kts 339°
2026-05-05 21:23 39.17619 -74.83147 16809 ft 382 kts 339°
2026-05-05 21:23 39.20169 -74.84075 16386 ft 379 kts 340°
2026-05-05 21:23 39.22697 -74.85006 15964 ft 376 kts 339°
2026-05-05 21:23 39.25206 -74.85938 15520 ft 374 kts 339°
2026-05-05 21:24 39.27716 -74.86878 15084 ft 372 kts 339°
2026-05-05 21:24 39.30196 -74.87810 14663 ft 370 kts 338°
2026-05-05 21:24 39.32660 -74.88737 14244 ft 368 kts 338°
2026-05-05 21:24 39.35108 -74.89661 13835 ft 365 kts 338°
2026-05-05 21:25 39.37543 -74.90581 13396 ft 363 kts 338°
2026-05-05 21:25 39.39957 -74.91494 12961 ft 360 kts 338°
2026-05-05 21:25 39.42344 -74.92396 12541 ft 357 kts 338°
2026-05-05 21:25 39.44728 -74.93299 12131 ft 356 kts 337°
2026-05-05 21:26 39.47170 -74.94229 11929 ft 365 kts 338°
2026-05-05 21:26 39.49608 -74.95153 11424 ft 366 kts 338°
2026-05-05 21:26 39.51998 -74.96096 10919 ft 361 kts 334°
2026-05-05 21:26 39.54290 -74.97415 10640 ft 345 kts 325°
2026-05-05 21:27 39.56284 -74.99018 10497 ft 327 kts 319°
2026-05-05 21:27 39.58089 -75.00680 10378 ft 313 kts 317°
2026-05-05 21:27 39.59811 -75.02304 10251 ft 300 kts 316°
2026-05-05 21:27 39.61472 -75.03869 10138 ft 288 kts 316°
2026-05-05 21:28 39.63039 -75.05340 10040 ft 276 kts 316°
2026-05-05 21:28 39.64571 -75.06773 9917 ft 268 kts 316°
2026-05-05 21:28 39.66115 -75.08171 9530 ft 272 kts 323°
2026-05-05 21:28 39.67949 -75.08958 9168 ft 286 kts 346°
2026-05-05 21:29 39.70007 -75.08877 8855 ft 293 kts 359°
2026-05-05 21:29 39.72000 -75.08448 8568 ft 296 kts 11°
2026-05-05 21:29 39.73868 -75.07178 8275 ft 304 kts 36°
2026-05-05 21:29 39.75353 -75.05233 8011 ft 303 kts 45°
2026-05-05 21:30 39.76727 -75.03149 7748 ft 303 kts 46°
2026-05-05 21:30 39.78096 -75.01074 7460 ft 302 kts 45°
2026-05-05 21:30 39.79490 -74.99021 7178 ft 302 kts 44°
2026-05-05 21:30 39.80897 -74.96995 6897 ft 302 kts 44°
2026-05-05 21:31 39.82311 -74.94978 6619 ft 301 kts 44°
2026-05-05 21:31 39.83546 -74.92756 6318 ft 305 kts 62°
2026-05-05 21:31 39.84300 -74.90184 6052 ft 304 kts 75°
2026-05-05 21:31 39.84829 -74.87528 5778 ft 303 kts 78°
2026-05-05 21:32 39.85576 -74.84971 5428 ft 303 kts 52°
2026-05-05 21:32 39.87143 -74.83250 5115 ft 292 kts 17°
2026-05-05 21:32 39.89061 -74.82909 4843 ft 270 kts 340°
2026-05-05 21:32 39.90707 -74.83825 4610 ft 251 kts 316°
2026-05-05 21:33 39.91971 -74.85301 4335 ft 239 kts 302°
2026-05-05 21:33 39.92877 -74.87060 4050 ft 229 kts 288°
2026-05-05 21:33 39.93414 -74.88989 3763 ft 219 kts 274°
2026-05-05 21:33 39.93516 -74.90916 3503 ft 209 kts 259°
2026-05-05 21:34 39.93313 -74.92763 3262 ft 203 kts 253°
2026-05-05 21:34 39.93027 -74.94551 3048 ft 199 kts 252°
2026-05-05 21:34 39.92717 -74.96265 2983 ft 187 kts 251°
2026-05-05 21:34 39.92402 -74.97900 3004 ft 185 kts 250°
2026-05-05 21:35 39.92087 -74.99498 2986 ft 179 kts 249°
2026-05-05 21:35 39.91772 -75.01062 2987 ft 178 kts 250°
2026-05-05 21:35 39.91455 -75.02627 2957 ft 180 kts 250°
2026-05-05 21:35 39.91137 -75.04204 2711 ft 180 kts 249°
2026-05-05 21:36 39.90828 -75.05752 2504 ft 169 kts 249°
2026-05-05 21:36 39.90543 -75.07183 2317 ft 156 kts 249°
2026-05-05 21:36 39.90277 -75.08510 2089 ft 146 kts 249°
2026-05-05 21:36 39.90020 -75.09782 1915 ft 144 kts 249°
2026-05-05 21:37 39.89766 -75.11042 1721 ft 144 kts 249°
2026-05-05 21:37 39.89514 -75.12300 1533 ft 143 kts 249°
2026-05-05 21:37 39.89263 -75.13557 1361 ft 143 kts 249°
2026-05-05 21:37 39.89013 -75.14810 1193 ft 143 kts 249°
2026-05-05 21:38 39.88761 -75.16070 1007 ft 142 kts 250°
2026-05-05 21:38 39.88514 -75.17317 810 ft 142 kts 249°
2026-05-05 21:38 39.88266 -75.18563 624 ft 141 kts 249°
2026-05-05 21:38 39.88020 -75.19804 454 ft 141 kts 248°
2026-05-05 21:39 39.87770 -75.21034 245 ft 139 kts 249°
2026-05-05 21:39 39.87525 -75.22251 88 ft 138 kts 249°
2026-05-05 21:39 39.87303 -75.23400 34 ft 111 kts 255°
2026-05-05 21:39 39.87159 -75.24132 34 ft 57 kts 265°
2026-05-05 21:40 39.87189 -75.24443 34 ft 22 kts 278°
2026-05-05 21:40 39.87165 -75.24655 34 ft 25 kts 256°
2026-05-05 21:40 39.87145 -75.24822 34 ft 10 kts 307°
2026-05-05 21:40 39.87212 -75.24809 34 ft 8 kts 63°
2026-05-05 21:41 39.87223 -75.24720 34 ft 12 kts 75°
2026-05-05 21:41 39.87226 -75.24704 34 ft 0 kts 75°